TimeEST,TemperatureF,Dew PointF,Humidity,Sea Level PressureIn,VisibilityMPH,Wind Direction,Wind SpeedMPH,Gust SpeedMPH,PrecipitationIn,Events,Conditions,WindDirDegrees,DateUTC
12:15 AM,14.7,13.3,94,30.35,10.0,Calm,Calm,-,N/A,,Unknown,0,2013-01-09 05:15:00
12:35 AM,14.0,12.6,94,30.35,7.0,Calm,Calm,-,N/A,,Unknown,0,2013-01-09 05:35:00
12:55 AM,13.8,12.2,93,30.35,10.0,East,3.5,-,N/A,,Unknown,90,2013-01-09 05:55:00
1:15 AM,15.8,14.5,95,30.34,10.0,Calm,Calm,-,N/A,,Unknown,0,2013-01-09 06:15:00
1:35 AM,14.9,13.5,94,30.34,7.0,Calm,Calm,-,N/A,,Unknown,0,2013-01-09 06:35:00
1:55 AM,14.9,13.5,94,30.35,10.0,ENE,3.5,-,N/A,,Unknown,70,2013-01-09 06:55:00
2:15 AM,15.6,14.2,94,30.36,10.0,Calm,Calm,-,N/A,,Unknown,0,2013-01-09 07:15:00
2:35 AM,15.1,13.6,94,30.36,7.0,Calm,Calm,-,N/A,,Unknown,0,2013-01-09 07:35:00
2:55 AM,15.3,13.6,93,30.36,10.0,Calm,Calm,-,N/A,,Unknown,0,2013-01-09 07:55:00
3:15 AM,14.5,12.9,93,30.35,7.0,Calm,Calm,-,N/A,,Unknown,0,2013-01-09 08:15:00
3:35 AM,14.4,12.9,94,30.35,7.0,Calm,Calm,-,N/A,,Unknown,0,2013-01-09 08:35:00
3:55 AM,13.8,12.0,93,30.35,7.0,NW,3.5,-,N/A,,Unknown,320,2013-01-09 08:55:00
4:15 AM,12.4,10.6,92,30.34,7.0,Calm,Calm,-,N/A,,Unknown,0,2013-01-09 09:15:00
4:35 AM,12.6,10.8,92,30.33,7.0,Calm,Calm,-,N/A,,Unknown,0,2013-01-09 09:35:00
4:55 AM,11.3,9.3,92,30.34,7.0,Calm,Calm,-,N/A,,Unknown,0,2013-01-09 09:55:00
5:15 AM,10.6,8.4,91,30.34,7.0,Calm,Calm,-,N/A,,Unknown,0,2013-01-09 10:15:00
5:35 AM,10.6,8.4,91,30.35,7.0,Calm,Calm,-,N/A,,Unknown,0,2013-01-09 10:35:00
5:55 AM,9.5,7.5,92,30.36,7.0,Calm,Calm,-,N/A,,Unknown,0,2013-01-09 10:55:00
6:15 AM,9.3,7.5,92,30.36,7.0,Calm,Calm,-,N/A,,Unknown,0,2013-01-09 11:15:00
6:35 AM,8.2,6.1,91,30.37,7.0,Calm,Calm,-,N/A,,Unknown,0,2013-01-09 11:35:00
6:55 AM,8.4,6.4,92,30.38,7.0,Calm,Calm,-,N/A,,Unknown,0,2013-01-09 11:55:00
7:15 AM,7.7,5.5,91,30.38,7.0,Calm,Calm,-,N/A,,Unknown,0,2013-01-09 12:15:00
7:35 AM,7.2,4.8,90,30.38,7.0,Calm,Calm,-,N/A,,Unknown,0,2013-01-09 12:35:00
8:15 AM,7.7,5.5,91,30.37,7.0,Calm,Calm,-,N/A,,Unknown,0,2013-01-09 13:15:00
8:35 AM,8.2,5.9,90,30.37,7.0,Calm,Calm,-,N/A,,Unknown,0,2013-01-09 13:35:00
8:55 AM,10.6,8.4,91,30.37,7.0,Calm,Calm,-,N/A,,Unknown,0,2013-01-09 13:55:00
9:35 AM,13.5,11.7,93,30.36,7.0,Calm,Calm,-,N/A,,Unknown,0,2013-01-09 14:35:00
9:55 AM,15.8,14.2,93,30.34,7.0,Calm,Calm,-,N/A,,Unknown,0,2013-01-09 14:55:00
10:15 AM,16.9,15.3,93,30.33,7.0,Calm,Calm,-,N/A,,Unknown,0,2013-01-09 15:15:00
10:35 AM,18.7,17.2,94,30.32,7.0,Calm,Calm,-,N/A,,Unknown,0,2013-01-09 15:35:00
10:55 AM,19.6,18.0,93,30.31,7.0,Calm,Calm,-,N/A,,Unknown,0,2013-01-09 15:55:00
11:15 AM,21.0,18.7,91,30.28,7.0,Calm,Calm,-,N/A,,Unknown,0,2013-01-09 16:15:00
11:35 AM,23.0,19.4,86,30.26,10.0,Calm,Calm,-,N/A,,Unknown,0,2013-01-09 16:35:00
11:55 AM,23.9,19.9,85,30.24,10.0,Calm,Calm,-,N/A,,Unknown,0,2013-01-09 16:55:00
12:15 PM,25.5,20.3,81,30.20,10.0,Calm,Calm,-,N/A,,Unknown,0,2013-01-09 17:15:00
12:55 PM,27.3,20.8,77,30.16,10.0,Calm,Calm,-,N/A,,Unknown,0,2013-01-09 17:55:00
1:15 PM,27.9,21.4,77,30.16,10.0,Calm,Calm,-,N/A,,Unknown,0,2013-01-09 18:15:00
1:35 PM,28.4,21.2,74,30.16,10.0,Calm,Calm,-,N/A,,Unknown,0,2013-01-09 18:35:00
1:55 PM,29.1,21.2,72,30.14,10.0,Calm,Calm,-,N/A,,Unknown,0,2013-01-09 18:55:00
2:15 PM,29.3,21.9,74,30.12,10.0,Calm,Calm,-,N/A,,Unknown,0,2013-01-09 19:15:00
2:35 PM,29.8,22.6,75,30.10,10.0,Calm,Calm,-,N/A,,Unknown,0,2013-01-09 19:35:00
2:55 PM,29.7,22.5,75,30.09,10.0,Calm,Calm,-,N/A,,Unknown,0,2013-01-09 19:55:00
3:15 PM,29.5,23.2,77,30.06,10.0,Calm,Calm,-,N/A,,Unknown,0,2013-01-09 20:15:00
3:35 PM,29.8,23.2,76,30.05,10.0,Calm,Calm,-,N/A,,Unknown,0,2013-01-09 20:35:00
3:55 PM,29.5,23.5,79,30.04,10.0,Calm,Calm,-,N/A,,Unknown,0,2013-01-09 20:55:00
4:15 PM,29.3,23.9,80,30.01,10.0,East,3.5,-,N/A,,Unknown,90,2013-01-09 21:15:00
4:35 PM,29.5,23.7,79,29.99,10.0,Calm,Calm,-,N/A,,Unknown,0,2013-01-09 21:35:00
4:55 PM,29.5,23.7,79,29.98,10.0,Calm,Calm,-,N/A,,Unknown,0,2013-01-09 21:55:00
5:15 PM,29.7,23.7,79,29.98,10.0,Calm,Calm,-,N/A,,Unknown,0,2013-01-09 22:15:00
5:35 PM,29.3,24.3,81,29.97,10.0,Calm,Calm,-,N/A,,Unknown,0,2013-01-09 22:35:00
5:55 PM,29.1,24.4,83,29.96,10.0,Calm,Calm,-,N/A,,Unknown,0,2013-01-09 22:55:00
6:15 PM,29.3,24.4,82,29.95,10.0,Calm,Calm,-,N/A,,Unknown,0,2013-01-09 23:15:00
6:35 PM,28.0,23.9,84,29.94,10.0,Calm,Calm,-,N/A,,Unknown,0,2013-01-09 23:35:00
6:55 PM,26.4,23.4,88,29.94,10.0,Calm,Calm,-,N/A,,Unknown,0,2013-01-09 23:55:00
7:15 PM,26.1,22.5,86,29.94,10.0,Calm,Calm,-,N/A,,Unknown,0,2013-01-10 00:15:00
7:35 PM,25.7,22.8,89,29.94,10.0,Calm,Calm,-,N/A,,Unknown,0,2013-01-10 00:35:00
8:15 PM,23.7,21.9,93,29.94,7.0,Calm,Calm,-,N/A,,Unknown,0,2013-01-10 01:15:00
8:35 PM,24.6,22.5,91,29.93,7.0,Calm,Calm,-,N/A,,Unknown,0,2013-01-10 01:35:00
8:55 PM,24.1,22.1,92,29.93,10.0,Calm,Calm,-,N/A,,Unknown,0,2013-01-10 01:55:00
9:35 PM,26.6,23.0,86,29.92,10.0,East,4.6,-,N/A,,Unknown,80,2013-01-10 02:35:00
9:55 PM,25.7,23.0,89,29.93,10.0,ESE,3.5,-,N/A,,Unknown,110,2013-01-10 02:55:00
10:15 PM,26.4,23.7,90,29.94,10.0,NNW,3.5,-,N/A,,Unknown,340,2013-01-10 03:15:00
10:35 PM,39.2,30.9,72,29.95,10.0,West,11.5,23.0,N/A,,Unknown,280,2013-01-10 03:35:00
10:55 PM,38.7,31.1,74,29.94,10.0,WNW,8.1,17.3,N/A,,Unknown,300,2013-01-10 03:55:00
11:15 PM,38.1,30.9,75,29.94,10.0,Calm,Calm,-,N/A,,Unknown,0,2013-01-10 04:15:00
11:35 PM,36.7,30.4,78,29.94,10.0,Calm,Calm,-,N/A,,Unknown,0,2013-01-10 04:35:00
11:55 PM,37.4,29.1,72,29.94,10.0,WSW,3.5,-,N/A,,Unknown,250,2013-01-10 04:55:00